Flag for Canada Weather past 2 weeks in Calgary, Alberta, Canada

Now
59 °F

Partly cloudy.


Feels Like: 58 °F
Forecast: 54 / 70 °F
Wind: 8 mph from East

Location: Calgary International

Current Time: Sep 23, 2014 at 5:09:10 AM

Latest Report: Sep 23, 2014 at 4:00 AM


Visibility: 15 mi

Pressure: 29.85 "Hg

Humidity: 59%

Dew point: 45 °F

Location of CalgaryLocation

Historic Weather in Calgary — Graph

°F

Calgary temperature yesterday

Maximum temperature yesterday: 82 °F (at 3:00 PM)
Minimum temperature yesterday: 50 °F (at 6:00 AM)
Average temperature yesterday: 66 °F

Past Weeks' High & Low Weather Summary

 TemperatureHumidityPressure
High82 °F (Sep 22, 3:00 PM)100% (Sep 8, 10:54 AM)30.71 "Hg (Sep 8, 10:54 AM)
Low28 °F (Sep 11, 7:00 AM)16% (Sep 22, 3:00 PM)29.57 "Hg (Sep 18, 2:00 PM)
Average50 °F66%30.11 "Hg
* Reported Sep 8 4:00 AM — Sep 23 4:00 AM, Calgary, Weather by CustomWeather, © 2014

Note: Actual official high and low records may vary slightly from our data, if they occured in-between our weather recording intervals... More about our weather records

Advertising

Calgary weather history for previous 24 hours

 ConditionsComfort  
Time TempWeatherWind HumidityBarometerVisibility
4:00 AM
Sep 23
59 °FPartly cloudy.8 mph59%29.85 "Hg15 mi
3:00 AM59 °FPassing clouds.6 mph59%29.82 "Hg15 mi
2:00 AM57 °FPassing clouds.2 mph63%29.82 "Hg15 mi
1:00 AM59 °FPartly cloudy.2 mph55%29.80 "Hg15 mi
12:00 AM61 °FPassing clouds.5 mph52%29.81 "Hg15 mi
11:00 PM
Sep 22
63 °FPassing clouds.3 mph49%29.80 "Hg15 mi
10:00 PM66 °FPassing clouds.5 mph43%29.82 "Hg15 mi
9:00 PM68 °FPassing clouds.2 mph40%29.83 "Hg10 mi
8:00 PM72 °FPartly sunny.3 mph31%29.83 "Hg15 mi
7:00 PM73 °FPartly sunny.8 mph29%29.82 "Hg15 mi
6:00 PM79 °FBroken clouds.6 mph24%29.81 "Hg15 mi
5:00 PM81 °FBroken clouds.5 mph24%29.80 "Hg15 mi
4:00 PM81 °FPartly sunny.6 mph21%29.81 "Hg15 mi
3:00 PM82 °FBroken clouds.8 mph16%29.81 "Hg15 mi
2:00 PM81 °FPartly sunny.3 mph18%29.83 "Hg15 mi
1:00 PM81 °FPartly sunny.8 mph20%29.84 "Hg15 mi
12:00 PM79 °FPartly sunny.12 mph26%29.84 "Hg15 mi
11:00 AM75 °FHigh level clouds.3 mph34%29.85 "Hg20 mi
10:00 AM66 °FPartly sunny.3 mph46%29.86 "Hg15 mi
9:00 AM59 °FPassing clouds.7 mph55%29.86 "Hg20 mi
8:00 AM52 °FPassing clouds.5 mph62%29.87 "Hg20 mi
7:00 AM54 °FPassing clouds.3 mph58%29.85 "Hg20 mi
6:00 AM50 °FClear.2 mph67%29.85 "Hg15 mi
5:00 AM55 °FClear.No wind55%29.84 "Hg15 mi
Weather by CustomWeather, © 2014

See weather overviewHow to use our weather pages